Consulta los datos en tiempo real de la estación meteorológica de Bagà
| Hora UTC | 03:20 |
|---|---|
| Temperatura | 12.9 ºC |
| Humedad | 87.0 % |
| Presión | 1020.8 hPa |
| Pluja | 0.0 mm |
| Velocidad viento | 0.0 km/h |
| Dirección viento | ENE |
| Radiación solar | 0.0 W/m² |
| Temperatura (ºC) | Humedad (%) | Presión (hPa) | Velocidad viento (km/h) | Precipitación (mm) | Radiación solar (W/m²) | |||||||||||||
|---|---|---|---|---|---|---|---|---|---|---|---|---|---|---|---|---|---|---|
| Hora UTC | Aire | Humedad | Presión | Vel. | Dir. | Vel. Max | Dir. | Intent. máx 5 min. | Rad. Sol. | |||||||||
| 00:05 | 14.9 | 79.0 | 1020.8 | 0.0 | ENE | 0.0 | 0.0 | 0.0 | ||||||||||
| 00:10 | 14.8 | 80.0 | 1020.8 | 0.0 | ENE | 0.0 | 0.0 | 0.0 | ||||||||||
| 00:15 | 14.6 | 81.0 | 1020.8 | 0.0 | ENE | 0.0 | 0.0 | 0.0 | ||||||||||
| 00:20 | 14.5 | 81.0 | 1020.8 | 0.0 | ENE | 0.0 | 0.0 | 0.0 | ||||||||||
| 00:25 | 14.4 | 81.0 | 1020.8 | 0.0 | ENE | 0.0 | 0.0 | 0.0 | ||||||||||
| 00:30 | 14.3 | 82.0 | 1020.8 | 0.0 | ENE | 0.0 | 0.0 | 0.0 | ||||||||||
| 00:35 | 14.2 | 83.0 | 1020.7 | 0.0 | ENE | 0.0 | 0.0 | 0.0 | ||||||||||
| 00:40 | 14.2 | 82.0 | 1020.7 | 0.0 | ENE | 0.0 | 0.0 | 0.0 | ||||||||||
| 00:45 | 14.3 | 82.0 | 1020.6 | 0.0 | ENE | 0.0 | 0.0 | 0.0 | ||||||||||
| 00:50 | 14.3 | 82.0 | 1020.7 | 0.0 | ENE | 0.0 | 0.0 | 0.0 | ||||||||||
| 00:55 | 14.3 | 82.0 | 1020.7 | 0.0 | ENE | 0.0 | 0.0 | 0.0 | ||||||||||
| 01:00 | 14.4 | 82.0 | 1020.7 | 0.0 | ENE | 0.0 | 0.0 | 0.0 | ||||||||||
| 01:05 | 14.4 | 82.0 | 1020.7 | 0.0 | ENE | 0.0 | 0.0 | 0.0 | ||||||||||
| 01:10 | 14.3 | 82.0 | 1020.8 | 0.0 | ENE | 0.0 | 0.0 | 0.0 | ||||||||||
| 01:15 | 14.2 | 82.0 | 1020.7 | 0.0 | ENE | 0.0 | 0.0 | 0.0 | ||||||||||
| 01:20 | 14.1 | 83.0 | 1020.7 | 0.0 | ENE | 0.0 | 0.0 | 0.0 | ||||||||||
| 01:25 | 14.1 | 83.0 | 1020.8 | 0.0 | ENE | 0.0 | 0.0 | 0.0 | ||||||||||
| 01:30 | 14.1 | 83.0 | 1020.7 | 0.0 | ENE | 0.0 | 0.0 | 0.0 | ||||||||||
| 01:35 | 14.1 | 83.0 | 1020.7 | 0.0 | ENE | 0.0 | 0.0 | 0.0 | ||||||||||
| 01:40 | 14.0 | 83.0 | 1020.7 | 0.0 | ENE | 0.0 | 0.0 | 0.0 | ||||||||||
| 01:45 | 14.0 | 83.0 | 1020.6 | 0.0 | ENE | 0.0 | 0.0 | 0.0 | ||||||||||
| 01:50 | 14.1 | 83.0 | 1020.6 | 0.0 | ENE | 0.0 | 0.0 | 0.0 | ||||||||||
| 01:55 | 14.1 | 83.0 | 1020.7 | 0.0 | W | 0.0 | 0.0 | 0.0 | ||||||||||
| 02:00 | 14.0 | 83.0 | 1020.7 | 0.0 | W | 0.0 | 0.0 | 0.0 | ||||||||||
| 02:05 | 13.9 | 83.0 | 1020.7 | 0.0 | W | 0.0 | 0.0 | 0.0 | ||||||||||
| 02:10 | 13.9 | 83.0 | 1020.7 | 0.0 | W | 0.0 | 0.0 | 0.0 | ||||||||||
| 02:15 | 13.8 | 84.0 | 1020.6 | 0.0 | W | 0.0 | 0.0 | 0.0 | ||||||||||
| 02:20 | 13.8 | 84.0 | 1020.6 | 0.0 | W | 0.0 | 0.0 | 0.0 | ||||||||||
| 02:25 | 13.7 | 84.0 | 1020.6 | 0.0 | W | 0.0 | 0.0 | 0.0 | ||||||||||
| 02:30 | 13.5 | 85.0 | 1020.6 | 4.8 | ENE | 4.8 | 0.0 | 0.0 | ||||||||||
| 02:35 | 13.3 | 86.0 | 1020.6 | 0.0 | ENE | 4.8 | 0.0 | 0.0 | ||||||||||
| 02:40 | 13.1 | 86.0 | 1020.7 | 0.0 | ENE | 1.6 | 0.0 | 0.0 | ||||||||||
| 02:45 | 13.1 | 86.0 | 1020.9 | 0.0 | ENE | 1.6 | 0.0 | 0.0 | ||||||||||
| 02:50 | 12.9 | 87.0 | 1020.8 | 0.0 | ENE | 0.0 | 0.0 | 0.0 | ||||||||||
| 02:55 | 13.0 | 87.0 | 1020.8 | 0.0 | ENE | 0.0 | 0.0 | 0.0 | ||||||||||
| 03:00 | 13.1 | 87.0 | 1020.8 | 0.0 | ENE | 0.0 | 0.0 | 0.0 | ||||||||||
| 03:05 | 12.9 | 87.0 | 1020.8 | 0.0 | ENE | 0.0 | 0.0 | 0.0 | ||||||||||
| 03:10 | 12.9 | 87.0 | 1020.9 | 0.0 | ENE | 0.0 | 0.0 | 0.0 | ||||||||||
| 03:15 | 12.9 | 87.0 | 1020.9 | 0.0 | ENE | 0.0 | 0.0 | 0.0 | ||||||||||
| 03:20 | 12.9 | 87.0 | 1020.8 | 0.0 | ENE | 0.0 | 0.0 | 0.0 | ||||||||||
| Máxima | 14.9 | 87.0 | 1020.9 | 4.8 | ENE | 4.8 | 0.0 | 0.0 | ||||||||||
| Mínima | 12.9 | 79.0 | 1020.6 | |||||||||||||||
| Total | 0.0 | |||||||||||||||||